Time,TemperatureF,DewpointF,PressureIn,WindDirection,WindDirectionDegrees,WindSpeedMPH,WindSpeedGustMPH,Humidity,HourlyPrecipIn,Conditions,Clouds,dailyrainin,SoftwareType,DateUTC
2015-07-08 00:03:00,69.2,65.2,30.05,SSW,205,0.0,0.0,87,0.00,,,0.00,Wunderground v.1.15,2015-07-08 04:03:00,
2015-07-08 00:08:00,69.1,65.1,30.04,SSW,205,0.0,0.0,87,0.00,,,0.00,Wunderground v.1.15,2015-07-08 04:08:00,
2015-07-08 00:13:00,69.2,65.2,30.04,SSW,205,0.0,0.0,87,0.00,,,0.00,Wunderground v.1.15,2015-07-08 04:13:00,
2015-07-08 00:18:00,69.2,65.2,30.06,SSW,205,0.0,0.0,87,0.00,,,0.00,Wunderground v.1.15,2015-07-08 04:18:00,
2015-07-08 00:23:00,69.2,65.2,30.06,SSW,205,0.0,0.0,87,0.29,,,0.06,Wunderground v.1.15,2015-07-08 04:23:00,
2015-07-08 00:28:00,69.3,65.3,30.07,SSW,205,0.0,0.0,87,0.12,,,0.06,Wunderground v.1.15,2015-07-08 04:28:00,
2015-07-08 00:34:00,69.3,65.3,30.06,North,360,0.0,0.0,87,0.08,,,0.07,Wunderground v.1.15,2015-07-08 04:34:00,
2015-07-08 00:39:00,69.4,65.4,30.06,North,360,0.0,0.0,87,0.08,,,0.08,Wunderground v.1.15,2015-07-08 04:39:00,
2015-07-08 00:44:00,69.3,65.3,30.06,North,360,0.0,0.0,87,0.08,,,0.08,Wunderground v.1.15,2015-07-08 04:44:00,
2015-07-08 00:49:00,69.3,65.3,30.06,North,360,0.0,1.0,87,0.10,,,0.09,Wunderground v.1.15,2015-07-08 04:49:00,
2015-07-08 00:54:00,69.3,65.3,30.06,North,360,0.0,0.0,87,0.08,,,0.10,Wunderground v.1.15,2015-07-08 04:54:00,
2015-07-08 01:00:00,69.3,65.3,30.06,North,360,0.0,0.0,87,0.07,,,0.10,Wunderground v.1.15,2015-07-08 05:00:00,
2015-07-08 01:06:00,69.2,65.2,30.06,North,360,0.0,0.0,87,0.04,,,0.10,Wunderground v.1.15,2015-07-08 05:06:00,
2015-07-08 01:11:00,69.2,65.2,30.06,North,360,0.0,0.0,87,0.00,,,0.10,Wunderground v.1.15,2015-07-08 05:11:00,
2015-07-08 01:16:00,69.2,65.2,30.05,North,360,0.0,0.0,87,0.00,,,0.10,Wunderground v.1.15,2015-07-08 05:16:00,
2015-07-08 01:22:00,69.2,65.2,30.06,North,360,0.0,0.0,87,0.00,,,0.10,Wunderground v.1.15,2015-07-08 05:22:00,
2015-07-08 01:27:00,69.3,65.3,30.06,North,360,0.0,0.0,87,0.00,,,0.10,Wunderground v.1.15,2015-07-08 05:27:00,
2015-07-08 01:32:00,69.3,65.3,30.06,North,360,0.0,0.0,87,0.00,,,0.10,Wunderground v.1.15,2015-07-08 05:32:00,
2015-07-08 01:37:00,69.3,65.3,30.06,North,360,0.0,0.0,87,0.00,,,0.10,Wunderground v.1.15,2015-07-08 05:37:00,
2015-07-08 01:42:00,69.3,65.3,30.06,North,360,0.0,0.0,87,0.00,,,0.11,Wunderground v.1.15,2015-07-08 05:42:00,
2015-07-08 01:48:00,69.3,65.3,30.06,North,360,0.0,0.0,87,0.00,,,0.11,Wunderground v.1.15,2015-07-08 05:48:00,
2015-07-08 01:53:00,69.3,65.3,30.05,North,360,0.0,0.0,87,0.00,,,0.11,Wunderground v.1.15,2015-07-08 05:53:00,
2015-07-08 01:58:00,69.4,65.4,30.06,North,360,0.0,1.0,87,0.00,,,0.11,Wunderground v.1.15,2015-07-08 05:58:00,
2015-07-08 02:03:00,69.4,65.4,30.05,North,360,0.0,1.0,87,0.29,,,0.14,Wunderground v.1.15,2015-07-08 06:03:00,
2015-07-08 02:08:00,69.4,65.4,30.05,North,360,0.0,1.0,87,0.10,,,0.14,Wunderground v.1.15,2015-07-08 06:08:00,
2015-07-08 02:13:00,69.5,65.5,30.04,North,360,0.0,0.0,87,0.05,,,0.14,Wunderground v.1.15,2015-07-08 06:13:00,
2015-07-08 02:18:00,69.6,65.6,30.05,North,360,0.0,0.0,87,0.04,,,0.14,Wunderground v.1.15,2015-07-08 06:18:00,
2015-07-08 02:23:00,69.6,65.6,30.05,North,360,0.0,0.0,87,0.00,,,0.14,Wunderground v.1.15,2015-07-08 06:23:00,
2015-07-08 02:28:00,69.7,65.7,30.06,North,360,0.0,1.0,87,1.42,,,0.22,Wunderground v.1.15,2015-07-08 06:28:00,
2015-07-08 02:33:00,69.7,65.7,30.05,WSW,242,0.0,1.0,87,0.53,,,0.30,Wunderground v.1.15,2015-07-08 06:33:00,
2015-07-08 02:38:00,69.7,65.7,30.05,WSW,242,0.0,1.0,87,0.48,,,0.34,Wunderground v.1.15,2015-07-08 06:38:00,
2015-07-08 02:43:00,69.7,65.7,30.05,WSW,242,0.0,1.0,87,0.19,,,0.36,Wunderground v.1.15,2015-07-08 06:43:00,
2015-07-08 02:48:00,69.7,65.7,30.05,WSW,242,0.0,1.0,87,0.93,,,0.40,Wunderground v.1.15,2015-07-08 06:48:00,
2015-07-08 02:53:00,69.7,65.7,30.05,WSW,240,0.0,1.0,87,0.56,,,0.44,Wunderground v.1.15,2015-07-08 06:53:00,
2015-07-08 02:58:00,69.8,65.8,30.05,SSE,155,0.0,7.0,87,0.79,,,0.54,Wunderground v.1.15,2015-07-08 06:58:00,
2015-07-08 03:03:00,69.9,65.9,30.05,SSE,150,0.0,3.0,87,0.91,,,0.62,Wunderground v.1.15,2015-07-08 07:03:00,
2015-07-08 03:08:00,69.9,65.9,30.05,South,170,0.0,5.0,87,0.32,,,0.64,Wunderground v.1.15,2015-07-08 07:08:00,
2015-07-08 03:13:00,69.9,65.9,30.04,SSE,167,0.0,5.0,87,0.13,,,0.65,Wunderground v.1.15,2015-07-08 07:13:00,
2015-07-08 03:18:00,69.9,65.9,30.05,South,174,0.0,5.0,87,0.09,,,0.66,Wunderground v.1.15,2015-07-08 07:18:00,
2015-07-08 03:23:00,70.0,66.0,30.05,South,175,0.0,3.0,87,0.09,,,0.66,Wunderground v.1.15,2015-07-08 07:23:00,
2015-07-08 03:28:00,70.0,66.0,30.04,South,182,2.0,3.0,87,0.06,,,0.66,Wunderground v.1.15,2015-07-08 07:28:00,
2015-07-08 03:33:00,70.0,66.0,30.05,South,182,0.0,0.0,87,0.04,,,0.66,Wunderground v.1.15,2015-07-08 07:33:00,
2015-07-08 03:38:00,70.1,66.0,30.04,South,174,1.0,6.0,87,0.00,,,0.66,Wunderground v.1.15,2015-07-08 07:38:00,
2015-07-08 03:43:00,70.1,66.0,30.04,South,182,2.0,4.0,87,0.00,,,0.66,Wunderground v.1.15,2015-07-08 07:43:00,
2015-07-08 03:48:00,70.1,66.0,30.04,SW,217,0.0,6.0,87,0.00,,,0.66,Wunderground v.1.15,2015-07-08 07:48:00,